CW0728 Weather Reports


Display with metric or nautical units.
time (UTC)temp
F
wind
direction
speed
MPH
gust
MPH
rain 1hr
in
rain 24hr
in
rain mn
in
humidity
%
barometer
mb
20260903030134 61 101 0.0 0.0 0.00 0.00 0.00 91 1018.6
20260903024537 61 104 0.0 0.0 0.00 0.00 0.00 91 1018.6
20260903023022 61 105 0.0 0.0 0.00 0.00 0.00 90 1019.0
20260903021550 61 105 0.0 0.0 0.00 0.00 0.00 90 1018.9
20260903020057 61 105 0.0 0.0 0.00 0.00 0.00 90 1019.0
20260903014513 61 105 0.0 0.0 0.00 0.00 0.00 90 1019.1
20260903013048 61 161 0.0 0.0 0.00 0.00 0.00 90 1019.1
20260903011524 60 103 0.0 0.0 0.00 0.00 0.00 90 1018.9
20260903010009 60 173 0.0 0.0 0.00 0.00 0.00 89 1019.1
20260903004548 60 170 0.0 0.0 0.00 0.00 0.00 89 1018.9
20260903003033 60 90 0.0 0.0 0.00 0.00 0.00 89 1019.0
20260903001506 61 159 0.0 0.0 0.00 0.00 0.00 89 1019.0
20260903000045 61 157 0.0 0.0 0.00 0.00 0.00 88 1019.1
20260902234514 61 148 0.0 0.0 0.00 0.00 0.00 88 1019.5
20260902233056 61 149 0.0 0.0 0.00 0.00 0.00 88 1019.7
20260902231539 61 161 0.0 0.0 0.00 0.00 0.00 87 1019.7
20260902230012 61 198 0.0 0.0 0.00 0.00 0.00 87 1019.6
20260902224548 62 212 0.0 0.0 0.00 0.00 0.00 85 1020.0
20260902223024 63 214 0.0 0.0 0.00 0.00 0.00 83 1020.3
20260902221613 64 90 0.0 0.0 0.00 0.00 0.00 82 1020.1
20260902220037 64 199 0.0 0.0 0.00 0.00 0.00 80 1020.0
20260902214521 66 84 0.0 0.0 0.00 0.00 0.00 78 1020.0
20260902213059 67 146 0.0 0.0 0.00 0.00 0.00 74 1020.2
20260902211533 68 150 0.0 0.0 0.00 0.00 0.00 74 1020.1
20260902210012 67 89 0.0 0.0 0.00 0.00 0.00 77 1020.1
20260902204606 66 116 0.0 0.0 0.00 0.00 0.00 77 1020.5
20260902203022 67 159 0.0 0.0 0.00 0.00 0.00 74 1020.5
20260902201511 68 111 0.0 0.0 0.00 0.00 0.00 75 1020.6
20260902200038 67 100 0.0 0.0 0.00 0.00 0.00 74 1020.8
20260902194524 67 123 0.0 0.0 0.00 0.00 0.00 74 1021.1
20260902193048 67 151 0.0 0.0 0.00 0.00 0.00 73 1021.2
20260902191523 67 103 0.0 0.0 0.00 0.00 0.00 73 1021.2
20260902190055 67 88 0.0 0.0 0.00 0.00 0.00 74 1021.1
20260902184540 67 101 0.0 0.0 0.00 0.00 0.00 73 1021.2
20260902183013 67 111 0.0 0.0 0.00 0.00 0.00 71 1021.2
20260902181549 67 91 0.0 0.0 0.00 0.00 0.00 73 1021.4
20260902180024 67 164 0.0 0.0 0.00 0.00 0.00 70 1021.4
20260902174509 69 98 0.0 0.0 0.00 0.00 0.00 70 1021.3
20260902173054 69 154 0.0 0.0 0.00 0.00 0.00 71 1021.2
20260902171534 69 86 0.0 6.0 0.00 0.00 0.00 71 1021.1
20260902170007 69 126 0.0 0.0 0.00 0.00 0.00 70 1021.2
20260902164557 69 157 0.0 0.0 0.00 0.00 0.00 72 1021.3
20260902163018 69 105 0.0 6.0 0.00 0.00 0.00 72 1021.4
20260902161558 69 184 0.0 7.0 0.00 0.00 0.00 72 1021.7
20260902160036 68 119 0.0 5.0 0.00 0.00 0.00 73 1021.8
20260902154535 68 167 0.0 4.0 0.00 0.00 0.00 72 1021.9
20260902153050 67 146 1.0 4.0 0.00 0.00 0.00 73 1022.0
20260902151538 68 121 0.0 6.0 0.00 0.00 0.00 72 1021.9
20260902150008 67 213 1.0 7.0 0.00 0.00 0.00 73 1021.6
20260902144544 66 141 0.0 0.0 0.00 0.00 0.00 74 1021.6
20260902143017 67 100 0.0 0.0 0.00 0.00 0.00 72 1021.8
20260902141556 67 119 0.0 0.0 0.00 0.00 0.00 74 1021.5
20260902140040 66 113 0.0 0.0 0.00 0.00 0.00 77 1021.2
20260902134512 66 184 0.0 0.0 0.00 0.00 0.00 80 1021.2
20260902133049 65 119 0.0 0.0 0.00 0.00 0.00 84 1021.3
20260902131522 64 117 0.0 0.0 0.00 0.00 0.00 87 1021.4
20260902130019 63 167 0.0 0.0 0.00 0.00 0.00 90 1021.4
20260902124544 62 95 0.0 0.0 0.00 0.00 0.00 93 1021.2
20260902123026 62 98 0.0 0.0 0.00 0.00 0.00 94 1021.3
20260902121552 61 90 0.0 0.0 0.00 0.00 0.00 94 1021.4
20260902120028 61 101 0.0 0.0 0.00 0.00 0.00 95 1021.4
20260902114512 60 87 0.0 0.0 0.00 0.00 0.00 94 1021.3
20260902113042 60 74 0.0 0.0 0.00 0.00 0.00 94 1021.3
20260902111519 60 144 0.0 0.0 0.00 0.00 0.00 94 1021.1
20260902104537 60 96 0.0 0.0 0.00 0.00 0.00 94 1020.7
20260902103013 60 107 0.0 0.0 0.00 0.00 0.00 94 1020.8
20260902101551 60 90 0.0 0.0 0.00 0.00 0.00 94 1020.8
20260902100034 60 105 0.0 0.0 0.00 0.00 0.00 94 1020.7
20260902094512 60 96 0.0 0.0 0.00 0.00 0.00 94 1020.7
20260902093051 60 103 0.0 0.0 0.00 0.00 0.00 94 1020.5
20260902091527 60 103 0.0 0.0 0.00 0.00 0.00 94 1020.5
20260902090000 60 86 0.0 0.0 0.00 0.00 0.00 94 1020.4
20260902084539 60 105 0.0 0.0 0.00 0.00 0.00 94 1020.3
20260902083034 60 104 0.0 0.0 0.00 0.00 0.00 94 1020.4
20260902081553 60 104 0.0 0.0 0.00 0.00 0.00 93 1020.4
20260902080027 60 104 0.0 0.0 0.00 0.00 0.00 93 1020.1
20260902074501 60 104 0.0 0.0 0.00 0.00 0.00 93 1019.9
20260902073045 60 104 0.0 0.0 0.00 0.00 0.00 93 1019.9
20260902071520 60 104 0.0 0.0 0.00 0.00 0.00 93 1019.8
20260902070047 60 104 0.0 0.0 0.00 0.00 0.00 93 1019.6
20260902064522 61 104 0.0 0.0 0.00 0.00 0.00 93 1019.6
20260902063109 61 104 0.0 0.0 0.00 0.00 0.00 93 1019.8
20260902061544 61 104 0.0 0.0 0.00 0.00 0.00 93 1019.9
20260902060019 61 104 0.0 0.0 0.00 0.00 0.00 93 1019.8
20260902054559 61 104 0.0 0.0 0.00 0.00 0.00 93 1019.7
20260902053033 61 104 0.0 0.0 0.00 0.00 0.00 92 1019.3
20260902051508 61 104 0.0 0.0 0.00 0.00 0.00 91 1019.1
20260902050043 61 104 0.0 0.0 0.00 0.00 0.00 91 1019.0
20260902044530 61 104 0.0 0.0 0.00 0.00 0.00 91 1018.9
20260902043003 61 104 0.0 0.0 0.00 0.00 0.00 91 1018.8
20260902041540 62 104 0.0 0.0 0.00 0.00 0.00 91 1018.7
20260902040012 62 104 0.0 0.0 0.00 0.00 0.00 91 1018.7
20260902034550 62 98 0.0 0.0 0.00 0.00 0.00 91 1018.7
20260902033025 62 97 0.0 0.0 0.00 0.00 0.00 91 1018.6
20260902031602 62 98 0.0 0.0 0.00 0.00 0.00 91 1018.4